This is the latest recevied weather packets stored in our database for station/object DK6OC-10. If no packets are shown the sender has not sent any weather packets the latest 10 day(s).
| Time | Temp. | Humidity | Pressure | Rain* | Wind** | Luminosity | Snow |
|---|---|---|---|---|---|---|---|
| 1777654853 | 27.22° C | 18% | 1017.2 hPa | - | - | - | - |
| 1777653053 | 27.22° C | 18% | 1017.3 hPa | - | - | - | - |
| 1777651253 | 27.78° C | 17% | 1017.6 hPa | - | - | - | - |
| 1777649453 | 28.33° C | 16% | 1017.8 hPa | - | - | - | - |
| 1777647653 | 28.89° C | 16% | 1018.2 hPa | - | - | - | - |
| 1777645853 | 28.89° C | 15% | 1018.4 hPa | - | - | - | - |
| 1777644051 | 28.89° C | 15% | 1018.6 hPa | - | - | - | - |
| 1777642251 | 28.89° C | 15% | 1018.9 hPa | - | - | - | - |
| 1777640451 | 28.89° C | 16% | 1019.2 hPa | - | - | - | - |
| 1777638651 | 28.33° C | 15% | 1019.7 hPa | - | - | - | - |
| 1777636851 | 27.78° C | 17% | 1020.1 hPa | - | - | - | - |
| 1777635051 | 27.22° C | 16% | 1020.4 hPa | - | - | - | - |
| 1777633251 | 26.67° C | 18% | 1020.9 hPa | - | - | - | - |
| 1777631451 | 25.56° C | 19% | 1021.1 hPa | - | - | - | - |
| 1777629651 | 25° C | 18% | 1021.4 hPa | - | - | - | - |
| 1777627851 | 23.89° C | 18% | 1021.8 hPa | - | - | - | - |
| 1777626050 | 23.33° C | 18% | 1021.9 hPa | - | - | - | - |
| 1777624250 | 22.22° C | 18% | 1022.1 hPa | - | - | - | - |
| 1777622450 | 21.67° C | 20% | 1022 hPa | - | - | - | - |
| 1777620650 | 20.56° C | 21% | 1022 hPa | - | - | - | - |
| 1777618850 | 20° C | 23% | 1021.9 hPa | - | - | - | - |
| 1777617050 | 19.44° C | 24% | 1021.9 hPa | - | - | - | - |
| 1777615250 | 18.89° C | 25% | 1022.2 hPa | - | - | - | - |
| 1777613450 | 18.89° C | 25% | 1022.1 hPa | - | - | - | - |
| 1777611650 | 18.89° C | 25% | 1021.8 hPa | - | - | - | - |
* Rain since midnight (hover to see other rain measurements)
** Current wind speed in m/s (hover to see current wind gust speed)